Terug naar catalogus

SL-16 DEB

ActiefLEO
NORAD 18476·DEBRIS·🇷🇺 Russia

Gelanceerd May 13, 1987 vanaf Baikonur Cosmodrome

Loading…

Volgende Passages (komende 24 uur)

TLE

VersSource: Space-Track

Epoch: Sep 14, 2026, 06:04 UTC

1 18476U 87041F   26257.25309791 -.00000014  00000-0  27392-4 0  9997
2 18476  70.9895 351.1987 0209623 287.4282 100.4353 13.73220132970113

Volg SL-16 DEB in realtime met AllMySat

Download on the App Store